Location: Unspecified
(0.0000°N, 0.0000°E)
Time: 11:36:47
(UTC+00:00)

S-56A Canister/Altair - Pass Details

Date: 22 November 2019
Orbit: 632 x 2500 km, 38.9° (Epoch: 13 December)

Event Time Altitude Azimuth Distance (km) Brightness Sun altitude
Rises 00:44:44 0° 306° (NW) 2,904 - -65.3°
Reaches altitude 10° 00:46:55 10° 304° (NW) 2,013 - -65.0°
Maximum altitude 00:51:20 69° 220° (SW) 746 - -64.4°
Drops below altitude 10° 00:56:51 10° 137° (SE) 2,490 - -63.5°
Sets 00:59:49 0° 135° (SE) 3,666 - -63.0°
